Location: Dover
(48.8500°N, 53.9833°W)
Time: 07:51:48
(UTC+00:00)

Cosmos 1869 - Pass Details

Date: 14 November 2025
Orbit: 453 x 480 km, 82.5° (Epoch: 12 December)

Event Time Altitude Azimuth Distance (km) Brightness Sun altitude
Rises 21:47:21 0° 192° (SSW) 2,498 6.9 -18.2°
Reaches altitude 10° 21:49:26 10° 194° (SSW) 1,621 6.0 -18.5°
Maximum altitude 21:52:58 74° 280° (W) 488 3.1 -19.1°
Enters shadow 21:55:36 17° 4° (N) 1,251 5.0 -19.5°
